STARLINK-35222

Last updated on Mon Oct 20 2025 00:02:05 GMT+0000 (Coordinated Universal Time)

1 65677U 25212B 25292.29988078 -.00378309 00000+0 -74555-2 0 9993 2 65677 53.1584 282.5918 0000562 67.4685 292.6383 15.48035756 5601
UTC large
Height (km)
Speed (km/s)
/
Latitude / Longitude
Inclination (degrees)
Orbital Period (minutes)
Azimuth
Elevation
Range (km)
Doppler Factor

Next 0 passes for location: London (51.5072 / 0.1276)

Sorry there are no passes over London.